TimeEDT,TemperatureF,Dew PointF,Humidity,Sea Level PressureIn,VisibilityMPH,Wind Direction,Wind SpeedMPH,Gust SpeedMPH,PrecipitationIn,Events,Conditions,WindDirDegrees,DateUTC
12:15 AM,48.2,44.6,87,29.92,-9999.0,West,5.8,-,N/A,,Unknown,260,2013-10-03 04:15:00
12:35 AM,50.0,46.4,87,29.92,-9999.0,WSW,6.9,-,N/A,,Unknown,250,2013-10-03 04:35:00
12:55 AM,48.2,44.6,87,29.93,-9999.0,WSW,4.6,-,N/A,,Unknown,250,2013-10-03 04:55:00
1:15 AM,48.2,44.6,87,29.93,-9999.0,West,4.6,-,N/A,,Unknown,260,2013-10-03 05:15:00
1:35 AM,48.2,44.6,87,29.94,-9999.0,SSE,4.6,-,N/A,,Unknown,150,2013-10-03 05:35:00
1:56 AM,46.4,42.8,87,29.94,-9999.0,SW,3.5,-,N/A,,Unknown,220,2013-10-03 05:56:00
2:15 AM,46.4,44.6,93,29.95,-9999.0,West,5.8,-,N/A,,Unknown,260,2013-10-03 06:15:00
2:35 AM,48.2,44.6,87,29.95,-9999.0,WSW,6.9,-,N/A,,Unknown,250,2013-10-03 06:35:00
2:55 AM,51.8,48.2,88,29.96,-9999.0,WSW,5.8,-,N/A,,Unknown,250,2013-10-03 06:55:00
3:15 AM,53.6,48.2,82,29.97,-9999.0,WSW,4.6,-,N/A,,Clear,250,2013-10-03 07:15:00
3:35 AM,51.8,46.4,82,29.96,-9999.0,Calm,Calm,-,N/A,,Clear,0,2013-10-03 07:35:00
3:55 AM,48.2,46.4,93,29.96,-9999.0,Calm,Calm,-,N/A,,Unknown,0,2013-10-03 07:55:00
4:15 AM,44.6,42.8,93,29.97,-9999.0,West,5.8,-,N/A,,Unknown,270,2013-10-03 08:15:00
4:35 AM,46.4,42.8,87,29.97,-9999.0,WSW,6.9,-,N/A,,Unknown,250,2013-10-03 08:35:00
4:55 AM,46.4,42.8,87,29.97,-9999.0,West,6.9,-,N/A,,Unknown,270,2013-10-03 08:55:00
5:15 AM,48.2,46.4,93,29.98,-9999.0,Calm,Calm,-,N/A,,Unknown,0,2013-10-03 09:15:00
5:35 AM,46.4,44.6,93,29.99,-9999.0,Calm,Calm,-,N/A,,Unknown,0,2013-10-03 09:35:00
5:55 AM,44.6,42.8,93,30.00,-9999.0,Calm,Calm,-,N/A,,Unknown,0,2013-10-03 09:55:00
6:15 AM,44.6,42.8,93,30.01,-9999.0,Calm,Calm,-,N/A,,Unknown,0,2013-10-03 10:15:00
6:35 AM,44.6,39.2,81,30.01,-9999.0,Calm,Calm,-,N/A,,Clear,0,2013-10-03 10:35:00
6:55 AM,42.8,37.4,81,30.02,-9999.0,Calm,Calm,-,N/A,,Clear,0,2013-10-03 10:55:00
7:15 AM,42.8,39.2,87,30.03,-9999.0,Calm,Calm,-,N/A,,Unknown,0,2013-10-03 11:15:00
7:35 AM,44.6,41.0,87,30.03,-9999.0,Calm,Calm,-,N/A,,Unknown,0,2013-10-03 11:35:00
7:55 AM,48.2,44.6,87,30.04,-9999.0,Calm,Calm,-,N/A,,Unknown,0,2013-10-03 11:55:00
8:15 AM,55.4,48.2,77,30.05,-9999.0,Calm,Calm,-,N/A,,Clear,0,2013-10-03 12:15:00
8:35 AM,60.8,51.8,72,30.06,-9999.0,Calm,Calm,-,N/A,,Clear,0,2013-10-03 12:35:00
8:55 AM,62.6,50.0,63,30.06,-9999.0,WNW,5.8,-,N/A,,Clear,300,2013-10-03 12:55:00
9:15 AM,64.4,51.8,64,30.06,-9999.0,Calm,Calm,-,N/A,,Clear,0,2013-10-03 13:15:00
9:35 AM,66.2,51.8,60,30.07,-9999.0,West,4.6,-,N/A,,Clear,260,2013-10-03 13:35:00
9:55 AM,69.8,50.0,49,30.07,-9999.0,Calm,Calm,-,N/A,,Clear,0,2013-10-03 13:55:00
10:15 AM,71.6,48.2,43,30.06,-9999.0,West,4.6,-,N/A,,Clear,270,2013-10-03 14:15:00
10:35 AM,71.6,48.2,43,30.06,-9999.0,SSW,3.5,-,N/A,,Clear,210,2013-10-03 14:35:00
10:55 AM,73.4,46.4,38,30.06,-9999.0,SSW,4.6,-,N/A,,Clear,210,2013-10-03 14:55:00
11:15 AM,73.4,46.4,38,30.06,-9999.0,WSW,8.1,-,N/A,,Clear,250,2013-10-03 15:15:00
11:35 AM,73.4,46.4,38,30.05,-9999.0,WSW,4.6,-,N/A,,Clear,240,2013-10-03 15:35:00
11:55 AM,73.4,44.6,36,30.05,-9999.0,West,9.2,-,N/A,,Clear,270,2013-10-03 15:55:00
12:15 PM,75.2,46.4,36,30.05,-9999.0,WSW,10.4,-,N/A,,Clear,240,2013-10-03 16:15:00
12:35 PM,75.2,44.6,34,30.04,-9999.0,WSW,8.1,-,N/A,,Clear,250,2013-10-03 16:35:00
12:55 PM,75.2,42.8,31,30.03,-9999.0,WSW,8.1,-,N/A,,Clear,250,2013-10-03 16:55:00
1:15 PM,75.2,44.6,34,30.03,-9999.0,WNW,6.9,-,N/A,,Clear,290,2013-10-03 17:15:00
1:35 PM,75.2,44.6,34,30.02,-9999.0,West,10.4,-,N/A,,Clear,270,2013-10-03 17:35:00
1:55 PM,75.2,44.6,34,30.01,-9999.0,West,10.4,-,N/A,,Clear,270,2013-10-03 17:55:00
2:15 PM,75.2,44.6,34,30.01,-9999.0,West,10.4,-,N/A,,Clear,260,2013-10-03 18:15:00
2:35 PM,73.4,42.8,33,30.01,-9999.0,West,12.7,-,N/A,,Clear,270,2013-10-03 18:35:00
2:55 PM,73.4,42.8,33,30.01,-9999.0,West,6.9,-,N/A,,Clear,280,2013-10-03 18:55:00
3:15 PM,73.4,44.6,36,30.01,-9999.0,West,5.8,-,N/A,,Clear,270,2013-10-03 19:15:00
3:35 PM,73.4,44.6,36,30.00,-9999.0,NW,3.5,-,N/A,,Clear,310,2013-10-03 19:35:00
3:55 PM,73.4,44.6,36,30.00,-9999.0,WNW,5.8,-,N/A,,Clear,290,2013-10-03 19:55:00
4:15 PM,73.4,44.6,36,30.00,-9999.0,WNW,8.1,-,N/A,,Clear,290,2013-10-03 20:15:00
4:35 PM,73.4,46.4,38,30.00,-9999.0,WNW,6.9,-,N/A,,Clear,290,2013-10-03 20:35:00
4:55 PM,73.4,46.4,38,30.00,-9999.0,WSW,5.8,-,N/A,,Clear,240,2013-10-03 20:55:00
5:15 PM,73.4,46.4,38,30.00,-9999.0,SW,4.6,-,N/A,,Clear,230,2013-10-03 21:15:00
5:35 PM,71.6,48.2,43,30.00,-9999.0,SW,3.5,-,N/A,,Clear,220,2013-10-03 21:35:00
5:55 PM,66.2,50.0,56,30.00,-9999.0,Calm,Calm,-,N/A,,Clear,0,2013-10-03 21:55:00
6:15 PM,60.8,51.8,72,30.00,-9999.0,Calm,Calm,-,N/A,,Clear,0,2013-10-03 22:15:00
6:35 PM,57.2,50.0,77,30.01,-9999.0,SW,3.5,-,N/A,,Clear,230,2013-10-03 22:35:00
6:55 PM,57.2,51.8,82,30.01,-9999.0,Calm,Calm,-,N/A,,Clear,0,2013-10-03 22:55:00
7:15 PM,55.4,51.8,88,30.02,-9999.0,West,3.5,-,N/A,,Unknown,280,2013-10-03 23:15:00
7:35 PM,55.4,50.0,82,30.02,-9999.0,Calm,Calm,-,N/A,,Clear,0,2013-10-03 23:35:00
7:55 PM,55.4,50.0,82,30.03,-9999.0,WSW,3.5,-,N/A,,Clear,250,2013-10-03 23:55:00
8:15 PM,55.4,50.0,82,30.03,-9999.0,Calm,Calm,-,N/A,,Clear,0,2013-10-04 00:15:00
8:35 PM,53.6,48.2,82,30.04,-9999.0,WSW,3.5,-,N/A,,Clear,240,2013-10-04 00:35:00
8:55 PM,53.6,48.2,82,30.04,-9999.0,SW,3.5,-,N/A,,Clear,230,2013-10-04 00:55:00
9:15 PM,53.6,48.2,82,30.04,-9999.0,Calm,Calm,-,N/A,,Clear,0,2013-10-04 01:15:00
9:35 PM,51.8,46.4,82,30.04,-9999.0,WSW,3.5,-,N/A,,Clear,240,2013-10-04 01:35:00
9:55 PM,51.8,46.4,82,30.05,-9999.0,WSW,3.5,-,N/A,,Clear,240,2013-10-04 01:55:00
10:15 PM,51.8,48.2,88,30.05,-9999.0,Calm,Calm,-,N/A,,Unknown,0,2013-10-04 02:15:00
10:35 PM,50.0,46.4,87,30.05,-9999.0,Calm,Calm,-,N/A,,Unknown,0,2013-10-04 02:35:00
10:55 PM,50.0,46.4,87,30.05,-9999.0,Calm,Calm,-,N/A,,Unknown,0,2013-10-04 02:55:00
11:15 PM,51.8,46.4,82,30.05,-9999.0,Calm,Calm,-,N/A,,Clear,0,2013-10-04 03:15:00
11:35 PM,51.8,46.4,82,30.05,-9999.0,Calm,Calm,-,N/A,,Clear,0,2013-10-04 03:35:00